Regional Weather Roundup
Issued by NWS

Home | Current Version | Previous Version | Graphics & Text | Print | Product List | Glossary On
Versions: 1 2 3 4 5 6 7 8 9 10 11 12 13 14 15 16 17 18 19 20 21 22 23 24 25 26 27 28 29 30 31 32 33 34 35 36 37 38 39 40 41 42 43 44 45 46 47 48 49 50
000
ASUS43 KTOP 250759
RWRKS

WEATHER ROUNDUP FOR KANSAS
NATIONAL WEATHER SERVICE GOODLAND KS
300 AM CDT SUN SEP 25 2016

NOTE:  "FAIR" INDICATES FEW OR NO CLOUDS BELOW 12,000 FEET WITH NO
SIGNIFICANT WEATHER AND/OR OBSTRUCTIONS TO VISIBILITY.

KSZ001>006-013>018-027>032-041>047-250900-
NORTHWEST KANSAS

CITY           SKY/WX    TMP DP  RH WIND       PRES   REMARKS
GOODLAND       CLEAR     48  41  76 NW12      30.25R
HAYS           MOCLDY    61  54  77 N15G22    30.10R
HILL CITY      CLEAR     56  46  69 NW13      30.13R
RUSSELL        FOG       64  64 100 W7        30.05R VSB 1/2
$$

KSZ061>065-074>080-084>089-250900-
SOUTHWEST KANSAS

CITY           SKY/WX    TMP DP  RH WIND       PRES   REMARKS
DODGE CITY     FOG       62  61  96 CALM      30.09R VSB<1/4
ELKHART          N/A     56  45  67 NW6         N/A
GARDEN CITY    PTCLDY    52  46  80 NW18      30.13R
GREAT BEND     CLOUDY    64  57  77 W10       30.06R VSB 1/4
LIBERAL        CLOUDY    64  61  88 E7        30.11R VSB 1/4
$$

KSZ066>073-081>083-090>101-250900-
SOUTHEAST KANSAS

CITY           SKY/WX    TMP DP  RH WIND       PRES   REMARKS
CHANUTE        LGT RAIN  69  68  96 E6        30.00F
COFFEYVILLE    MOCLDY    68  66  93 E8        30.01F
HUTCHINSON     LGT RAIN  67  66  97 CALM      30.04R
MEDICINE LODGE   N/A     66  65  96 CALM        N/A
NEWTON         LGT RAIN N/A N/A N/A SE15      30.03F
PARSONS        MOCLDY    68  66  93 VRB3      30.02F
WICHITA INTL   TSTM      67  67 100 SE3       30.03F FOG
WICHITA JABRA  RAIN      67  67 100 CALM      30.03S
WICHITA MCCONL TSTM      68  66  94 E3        30.04R FOG
WINFIELD       CLOUDY    67  67 100 NE6       30.04R
$$

KSZ007>012-019>026-033>040-048>060-102>105-250900-
NORTHEAST KANSAS

CITY           SKY/WX    TMP DP  RH WIND       PRES   REMARKS
CONCORDIA      CLOUDY    67  67 100 W5        30.02R
EMPORIA        CLOUDY    67  66  97 S5        30.04R
LAWRENCE       LGT RAIN  69  68  96 S8        30.04R
MANHATTAN      CLOUDY    68  67  96 SE5       30.03R
OLATHE IND     LGT RAIN  68  67  96 S12       30.05R
OLATHE EXE     LGT RAIN  68  65  90 SW7       30.04S
SALINA         MOCLDY    68  67  96 S7        30.03S
TOPEKA BILLARD CLOUDY    69  67  93 S3        30.03R
TOPEKA FORBES    N/A    N/A N/A N/A MISG      30.04R
$$




USA.gov is the U.S. government's official web portal to all federal, state and local government web resources and services.